Tracking 19854 objects as of 23-Sep-2019
HD Live streaming from Space Station
objects crossing your sky now

INTELSAT 4-F4

Track INTELSAT 4-F4 now!
INTELSAT 4-F4 is classified as:


NORAD ID: 5775
Int'l Code: 1972-003A
Perigee: 35,905.4 km
Apogee: 35,932.4 km
Inclination: 12.2 °
Period: 1,442.5 minutes
Semi major axis: 42289 km
RCS: 2 m2 (large)
Launch date: January 23, 1972
Source: International Telecommunications Satellite Organization (ITSO)
Launch site: AIR FORCE EASTERN TEST RANGE (AFETR)
aabbcc
Your satellite tracking list
Your tracking list is empty




NASA's NSSDC Master Catalog

Two Line Element Set (TLE):
1  5775U 72003A   19265.59914900 -.00000281  00000-0  00000+0 0  9997
2  5775  12.1744 319.4379 0003191  41.5870 323.0875  0.99826865112836
Source of the keplerian elements: AFSPC